Regional Weather Roundup
Issued by NWS Goodland, KS

Home | Current Version | Previous Version | Text Only | Print | Product List | Glossary Off
Versions: 1 2 3 4 5 6 7 8 9 10 11 12 13 14 15 16 17 18 19 20 21 22 23 24 25 26 27 28 29 30 31 32 33 34 35 36 37 38 39 40 41 42 43 44 45 46 47 48 49 50

000
ASUS43 KGLD 250059
RWRGLD

GOODLAND FORECAST AREA HOURLY WEATHER ROUNDUP
NATIONAL WEATHER SERVICE GOODLAND KS
700 PM MDT TUE APR 24 2018

...OFFICIAL OBSERVATIONS...

CITY           SKY/WX    TMP DP  RH WIND       PRES   REMARKS
GOODLAND KS    CLOUDY    39  35  86 N18G26    30.34R
HILL CITY KS   CLOUDY    45  40  82 N25G36    30.29S
IMPERIAL NEB   CLOUDY    40  33  76 N22G33    30.37R
MCCOOK NEB     CLOUDY    41  36  82 N23G32    30.32F
AKRON CO       CLOUDY    38  30  73 N16       30.37F
BURLINGTON CO  CLOUDY    38  33  82 N18G26    30.36R
LIMON CO       CLOUDY    36  30  79 N9        30.37S
$$

...UNOFFICIAL OBSERVATIONS...

CITY           SKY/WX    TMP DP  RH WIND       PRES   REMARKS
NORTON KS      CLOUDY    43  37  81 NW23      30.29
SHARON SPRINGS   N/A     41  36  81 N16G25      N/A
KIT CARSON CO    N/A     38  34  86 MISG        N/A
YUMA CO        CLOUDY    37  32  81 N14G20    30.38R
$$




USA.gov is the U.S. government's official web portal to all federal, state and local government web resources and services.